GW0861 Weather Reports


Display with metric or nautical units.
time (UTC)temp
F
wind
direction
speed
MPH
gust
MPH
rain 1hr
in
rain 24hr
in
rain mn
in
humidity
%
barometer
mb
20260506091521 49 186 0.0 1.0 0.03 0.20 0.06 94 1006.0
20260506091018 49 186 0.0 1.0 0.04 0.20 0.06 94 1006.1
20260506090519 49 186 0.0 3.0 0.03 0.20 0.05 94 1006.4
20260506090039 49 186 0.0 7.0 0.02 0.17 0.04 94 1006.6
20260506090031 49 186 0.0 5.0 0.03 0.20 0.05 94 1006.4
20260506085019 48 186 3.0 7.0 0.02 0.17 0.04 94 1006.6
20260506084519 48 317 0.0 2.0 0.02 0.17 0.04 94 1006.6
20260506084019 48 317 1.0 3.0 0.02 0.17 0.04 93 1006.8
20260506083534 48 317 2.0 3.0 0.02 0.17 0.04 93 1006.9
20260506082519 48 171 0.0 0.0 0.01 0.17 0.03 94 1007.0
20260506082019 48 171 0.0 3.0 0.02 0.17 0.03 94 1007.0
20260506081533 48 171 0.0 3.0 0.02 0.17 0.03 94 1006.9
20260506080518 48 100 2.0 3.0 0.01 0.17 0.02 94 1006.8
20260506073019 48 71 1.0 4.0 0.01 0.16 0.02 93 1006.9
20260506072518 48 71 0.0 4.0 0.01 0.16 0.01 93 1007.0
20260506072019 48 61 0.0 9.0 0.00 0.16 0.01 93 1007.0
20260506071519 48 197 1.0 11.0 0.01 0.16 0.01 93 1006.9
20260506071018 48 93 8.0 11.0 0.01 0.16 0.01 92 1006.7
20260506070518 48 100 8.0 11.0 0.01 0.16 0.01 92 1006.8
20260506062018 49 83 6.0 10.0 0.01 0.15 0.01 91 1007.2
20260506061755 49 69 4.0 7.0 0.00 0.15 0.00 90 1007.3
20260506061020 49 71 5.0 7.0 0.00 0.15 0.00 90 1007.7
20260506060519 49 68 0.0 7.0 0.00 0.15 0.00 90 1008.0
20260506051018 49 78 5.0 7.0 0.00 0.15 0.00 90 1008.8
20260506050519 50 93 4.0 7.0 0.00 0.15 0.00 90 1008.9
20260506044519 50 90 5.0 10.0 0.00 0.15 0.00 90 1008.7
20260506044019 50 83 8.0 10.0 0.00 0.15 0.00 90 1008.7
20260506043519 50 89 6.0 11.0 0.00 0.15 0.00 90 1008.7
20260506043018 51 71 6.0 11.0 0.00 0.15 0.00 90 1008.9
20260506042519 51 76 6.0 10.0 0.00 0.15 0.00 90 1008.4
20260506042018 51 72 6.0 12.0 0.00 0.15 0.00 90 1008.4
20260506041520 51 80 8.0 12.0 0.00 0.15 0.00 90 1008.5
20260506041018 52 71 8.0 11.0 0.00 0.15 0.00 90 1008.6
20260506040803 52 85 4.0 11.0 0.00 0.15 0.00 91 1008.7
20260506040019 52 90 6.0 11.0 0.00 0.15 0.00 90 1008.7
20260506035518 53 103 8.0 11.0 0.00 0.15 0.15 91 1008.6
20260506035018 53 96 6.0 9.0 0.00 0.15 0.15 91 1008.8
20260506034518 53 90 4.0 10.0 0.00 0.15 0.15 91 1008.5
20260506034018 53 59 2.0 10.0 0.00 0.15 0.15 91 1008.7
20260506033519 53 79 4.0 6.0 0.00 0.15 0.15 91 1008.6
20260506033019 53 90 4.0 6.0 0.00 0.15 0.15 90 1008.6
20260506032518 53 85 0.0 3.0 0.00 0.15 0.15 90 1008.6
20260506032018 54 37 0.0 4.0 0.00 0.15 0.15 90 1008.7
20260506031519 54 275 0.0 4.0 0.00 0.15 0.15 90 1009.0
20260506031019 54 61 2.0 3.0 0.00 0.15 0.15 90 1008.9
20260506030759 54 41 0.0 3.0 0.00 0.15 0.15 90 1009.1
20260506030018 54 51 0.0 5.0 0.00 0.15 0.15 90 1009.0
20260506025518 54 79 1.0 6.0 0.00 0.15 0.15 90 1009.0
20260506025020 54 71 5.0 6.0 0.00 0.15 0.15 89 1008.9
20260506024755 54 65 4.0 6.0 0.00 0.15 0.15 89 1009.0
20260506024020 54 83 5.0 6.0 0.00 0.15 0.15 88 1008.9
20260506023518 54 71 3.0 5.0 0.00 0.15 0.15 88 1008.9
20260506023018 54 35 2.0 4.0 0.00 0.15 0.15 87 1008.9
20260506022518 55 340 1.0 4.0 0.00 0.15 0.15 86 1008.9
20260506022018 55 283 1.0 6.0 0.00 0.15 0.15 86 1009.0
20260506021518 55 48 2.0 6.0 0.00 0.15 0.15 86 1009.0
20260506021019 55 0 1.0 6.0 0.00 0.15 0.15 86 1008.8
20260506020518 55 1 3.0 6.0 0.00 0.15 0.15 85 1008.7
20260506020018 55 350 3.0 6.0 0.00 0.15 0.15 85 1008.7
20260506015518 55 25 1.0 6.0 0.00 0.15 0.15 85 1008.8
20260506015019 56 47 5.0 6.0 0.00 0.15 0.15 85 1008.8
20260506014519 56 48 3.0 9.0 0.00 0.15 0.15 84 1008.9
20260506014255 56 47 4.0 9.0 0.00 0.15 0.15 83 1009.1
20260506013751 56 276 3.0 14.0 0.00 0.15 0.15 83 1009.0
20260506013017 57 320 7.0 15.0 0.00 0.15 0.15 82 1009.3
20260506012754 57 282 9.0 15.0 0.00 0.15 0.15 82 1009.4
20260506012019 58 221 2.0 12.0 0.00 0.15 0.15 81 1008.5
20260506011518 58 272 5.0 12.0 0.00 0.15 0.15 80 1008.4
20260506011018 58 0 4.0 12.0 0.00 0.15 0.15 80 1008.5
20260506010518 59 345 4.0 10.0 0.00 0.15 0.15 79 1008.4
20260506010018 59 351 5.0 10.0 0.00 0.15 0.15 79 1008.1
20260506005519 60 71 3.0 7.0 0.00 0.15 0.15 79 1008.1
20260506005019 60 266 4.0 7.0 0.00 0.15 0.15 79 1008.1
20260506004518 60 10 2.0 5.0 0.00 0.15 0.15 79 1007.9
20260506004018 60 25 2.0 4.0 0.00 0.15 0.15 80 1007.9
20260506003519 60 272 1.0 3.0 0.00 0.15 0.15 80 1007.8
20260506003020 60 272 2.0 4.0 0.00 0.15 0.15 80 1007.9
20260506002518 61 272 2.0 5.0 0.00 0.15 0.15 79 1007.8
20260506002018 61 272 4.0 5.0 0.00 0.15 0.15 80 1007.7
20260506001518 61 272 4.0 5.0 0.00 0.15 0.15 79 1007.6
20260506001018 61 272 4.0 5.0 0.00 0.15 0.15 79 1007.7
20260506000518 61 269 3.0 6.0 0.00 0.15 0.15 79 1007.7
20260506000018 61 279 3.0 7.0 0.00 0.15 0.15 79 1007.5
20260505235518 61 275 6.0 10.0 0.00 0.15 0.15 79 1007.5
20260505235257 62 289 4.0 10.0 0.00 0.15 0.15 79 1007.6
20260505234519 62 264 6.0 7.0 0.00 0.15 0.15 78 1007.6
20260505234018 62 252 5.0 10.0 0.00 0.15 0.15 78 1007.7
20260505233518 62 262 5.0 10.0 0.00 0.15 0.15 78 1007.5
20260505233019 62 257 5.0 9.0 0.00 0.15 0.15 78 1007.6
20260505232518 62 243 5.0 7.0 0.00 0.15 0.15 78 1007.5
20260505232020 62 234 2.0 6.0 0.00 0.15 0.15 78 1007.7
20260505231518 61 185 3.0 6.0 0.00 0.15 0.15 78 1007.6
20260505231254 61 265 3.0 7.0 0.00 0.15 0.15 79 1007.6
20260505230518 61 230 5.0 7.0 0.00 0.15 0.15 79 1007.5
20260505230019 61 247 4.0 7.0 0.00 0.15 0.15 80 1007.4
20260505225754 61 238 4.0 7.0 0.00 0.15 0.15 80 1007.2
20260505225018 62 272 4.0 9.0 0.00 0.15 0.15 80 1007.1
20260505224519 62 268 6.0 10.0 0.01 0.15 0.15 80 1007.1
20260505224018 62 243 5.0 10.0 0.01 0.15 0.15 80 1007.2
20260505223519 62 238 4.0 11.0 0.02 0.15 0.15 80 1007.2
20260505223018 61 293 6.0 12.0 0.03 0.15 0.15 81 1007.3
20260505222518 61 264 7.0 14.0 0.03 0.15 0.15 80 1007.3
20260505222453 61 259 8.0 19.0 0.03 0.15 0.15 81 1007.2
20260505222152 61 265 7.0 14.0 0.03 0.15 0.15 81 1007.3
20260505220518 62 233 8.0 14.0 0.03 0.15 0.15 81 1007.1
20260505220018 62 258 8.0 14.0 0.03 0.15 0.15 81 1007.1
20260505215541 63 275 9.0 14.0 0.03 0.12 0.15 78 1007.1
20260505215533 62 259 7.0 14.0 0.03 0.12 0.15 80 1007.0
20260505214518 64 285 7.0 17.0 0.02 0.12 0.14 76 1007.2
20260505214253 65 289 6.0 22.0 0.02 0.12 0.14 74 1007.0
20260505213518 66 250 13.0 22.0 0.01 0.12 0.13 71 1007.0
20260505213020 66 248 6.0 22.0 0.00 0.12 0.12 68 1006.8
20260505212518 67 245 11.0 22.0 0.00 0.12 0.12 65 1006.8
20260505212018 67 292 9.0 20.0 0.00 0.12 0.12 64 1006.7
20260505211518 67 269 9.0 18.0 0.00 0.12 0.12 64 1006.5
20260505211018 67 303 11.0 20.0 0.00 0.12 0.12 65 1006.2
20260505210520 67 258 15.0 22.0 0.00 0.12 0.12 63 1006.2
20260505210018 67 305 14.0 22.0 0.00 0.12 0.12 65 1006.0
20260505205519 67 234 9.0 14.0 0.00 0.12 0.12 67 1006.2
20260505205018 67 262 8.0 16.0 0.00 0.12 0.12 68 1006.0
20260505204518 67 261 8.0 16.0 0.00 0.12 0.12 69 1006.1
20260505204018 67 268 10.0 15.0 0.00 0.12 0.12 68 1006.2
20260505203755 67 220 10.0 15.0 0.00 0.12 0.12 70 1006.2
20260505203018 66 289 8.0 15.0 0.00 0.12 0.12 73 1006.2
20260505202518 66 266 9.0 15.0 0.00 0.12 0.12 74 1006.4
20260505202251 66 281 6.0 16.0 0.00 0.12 0.12 75 1006.6
20260505201517 65 254 9.0 16.0 0.00 0.12 0.12 75 1006.6
20260505201018 65 286 9.0 14.0 0.00 0.12 0.12 78 1006.5
20260505200518 65 285 7.0 16.0 0.00 0.12 0.12 78 1006.7
20260505200020 65 272 7.0 16.0 0.00 0.12 0.12 77 1007.0
20260505195753 65 248 9.0 15.0 0.00 0.12 0.12 79 1007.0
20260505195255 65 266 8.0 14.0 0.00 0.12 0.12 81 1007.0
20260505194517 64 279 11.0 14.0 0.00 0.12 0.12 81 1007.0
20260505194038 63 252 5.0 9.0 0.00 0.12 0.12 84 1007.0
20260505194030 64 262 6.0 10.0 0.00 0.12 0.12 84 1006.9
20260505193018 63 216 5.0 12.0 0.01 0.12 0.12 88 1007.0
20260505192757 62 275 6.0 13.0 0.01 0.12 0.12 88 1007.1
20260505192018 61 258 4.0 13.0 0.04 0.12 0.12 89 1007.1
20260505191517 61 268 6.0 12.0 0.10 0.12 0.12 89 1007.1
20260505191254 60 272 6.0 12.0 0.10 0.12 0.12 89 1007.1
20260505190518 60 296 8.0 13.0 0.11 0.12 0.12 87 1007.2
20260505190018 60 265 7.0 13.0 0.11 0.12 0.12 86 1007.3
20260505185524 60 257 6.0 12.0 0.11 0.01 0.12 85 1007.4
20260505185518 60 274 5.0 11.0 0.11 0.01 0.12 86 1007.3
20260505184520 60 223 6.0 15.0 0.11 0.01 0.12 84 1007.3
20260505184017 61 264 9.0 15.0 0.11 0.01 0.12 83 1007.4
20260505183518 61 265 7.0 16.0 0.11 0.01 0.12 82 1007.4
20260505183018 62 282 7.0 20.0 0.10 0.01 0.11 80 1007.3
20260505182517 63 258 12.0 31.0 0.10 0.01 0.11 77 1007.3
20260505182018 65 230 16.0 31.0 0.07 0.01 0.08 73 1007.0
20260505181756 68 292 14.0 28.0 0.01 0.01 0.02 64 1006.1
20260505181751 67 283 12.0 24.0 0.01 0.01 0.02 67 1006.5
20260505180757 69 268 13.0 28.0 0.00 0.01 0.01 58 1006.1
20260505180016 70 251 16.0 27.0 0.00 0.01 0.01 52 1005.7
20260505175739 71 281 13.0 21.0 0.00 0.01 0.01 49 1005.6
20260505175701 71 264 8.0 15.0 0.00 0.01 0.01 50 1005.5
20260505174743 71 226 9.0 18.0 0.00 0.01 0.01 49 1005.7
20260505174018 72 214 11.0 19.0 0.00 0.01 0.01 48 1005.8
20260505173824 72 244 11.0 21.0 0.00 0.01 0.01 50 1005.8
20260505173018 72 214 9.0 21.0 0.00 0.01 0.01 49 1006.0
20260505172524 72 197 11.0 21.0 0.00 0.01 0.01 50 1006.2
20260505172029 71 276 6.0 20.0 0.00 0.01 0.01 54 1006.1
20260505172023 72 231 5.0 20.0 0.00 0.01 0.01 54 1006.1
20260505171017 70 213 9.0 20.0 0.00 0.01 0.01 53 1006.4
20260505170537 69 251 12.0 19.0 0.00 0.01 0.01 54 1006.7
20260505170529 70 159 9.0 20.0 0.00 0.01 0.01 54 1006.7
20260505165516 69 241 10.0 22.0 0.00 0.01 0.01 55 1006.6
20260505165018 69 217 11.0 22.0 0.00 0.01 0.01 54 1006.7
20260505164750 69 262 10.0 22.0 0.00 0.01 0.01 55 1006.7
20260505164017 69 257 9.0 23.0 0.00 0.01 0.01 55 1006.9
20260505163544 69 248 9.0 20.0 0.00 0.01 0.01 55 1006.9
20260505163537 69 268 14.0 23.0 0.00 0.01 0.01 54 1006.8
20260505162518 69 188 10.0 20.0 0.00 0.01 0.01 56 1006.8
20260505162256 69 189 9.0 20.0 0.00 0.01 0.01 55 1006.6
20260505161517 69 275 10.0 19.0 0.00 0.01 0.01 54 1006.2
20260505161018 69 259 9.0 20.0 0.00 0.01 0.01 55 1006.4
20260505160518 69 212 10.0 21.0 0.00 0.01 0.01 55 1006.4
20260505153017 69 251 15.0 24.0 0.00 0.01 0.01 53 1006.7
20260505153004 69 305 12.0 29.0 0.00 0.01 0.01 54 1006.9
20260505152018 69 275 14.0 29.0 0.00 0.01 0.01 54 1006.9
20260505151517 69 269 13.0 28.0 0.00 0.01 0.01 55 1006.9
20260505151017 69 231 9.0 23.0 0.00 0.01 0.01 56 1006.8
20260505150753 69 221 13.0 23.0 0.00 0.01 0.01 55 1006.8
20260505150234 69 283 15.0 23.0 0.00 0.01 0.01 55 1006.8
20260505140518 68 206 14.0 21.0 0.00 0.01 0.01 58 1006.4
20260505125017 64 261 9.0 18.0 0.00 0.01 0.01 64 1006.6
20260505124518 64 255 9.0 21.0 0.00 0.01 0.01 64 1006.8
20260505124017 64 251 9.0 21.0 0.00 0.01 0.01 66 1006.9
20260505123518 63 195 7.0 17.0 0.00 0.01 0.01 65 1006.9
20260505123017 63 237 9.0 24.0 0.00 0.01 0.01 66 1006.8
20260505122753 63 200 11.0 24.0 0.00 0.01 0.01 65 1006.9
20260505122019 63 326 9.0 20.0 0.00 0.01 0.01 66 1007.1
20260505121517 62 235 8.0 15.0 0.00 0.01 0.01 68 1007.1
20260505121255 62 227 9.0 16.0 0.00 0.01 0.01 68 1007.0
20260505120517 61 258 6.0 17.0 0.00 0.01 0.01 68 1007.3
20260505120018 61 216 8.0 18.0 0.00 0.01 0.01 68 1007.3
20260505115517 61 276 8.0 18.0 0.00 0.01 0.01 69 1007.4
20260505115017 60 192 7.0 19.0 0.00 0.01 0.01 69 1007.1
20260505114517 60 200 9.0 21.0 0.00 0.01 0.01 69 1007.0
20260505114018 60 180 9.0 21.0 0.00 0.01 0.01 69 1007.1
20260505113517 60 235 4.0 15.0 0.00 0.01 0.01 69 1007.1
20260505113018 60 290 9.0 15.0 0.00 0.01 0.01 69 1007.1
20260505112753 60 223 8.0 15.0 0.00 0.01 0.01 70 1007.0
20260505112017 60 231 5.0 12.0 0.00 0.01 0.01 71 1006.8
20260505111519 60 227 7.0 18.0 0.00 0.01 0.01 71 1006.8
20260505111016 60 213 9.0 19.0 0.00 0.01 0.01 71 1006.7
20260505110529 59 195 6.0 19.0 0.00 0.01 0.01 72 1006.5
20260505102004 57 212 6.0 12.0 0.01 0.01 0.01 75 1006.2
20260505101505 57 158 6.0 14.0 0.01 0.01 0.01 76 1006.2
20260505101004 57 193 8.0 14.0 0.01 0.01 0.01 77 1006.4
20260505100505 57 189 5.0 9.0 0.01 0.01 0.01 78 1006.2
20260505100007 57 164 5.0 12.0 0.01 0.00 0.01 77 1006.2
20260505095504 57 190 6.0 12.0 0.01 0.00 0.01 77 1006.4
20260505095007 57 182 5.0 11.0 0.01 0.00 0.01 77 1006.1
20260505094505 58 173 6.0 10.0 0.01 0.00 0.01 76 1006.4
20260505094004 58 220 4.0 11.0 0.01 0.00 0.01 76 1006.2
20260505093505 58 245 5.0 11.0 0.01 0.00 0.01 76 1006.1
20260505093240 58 264 7.0 15.0 0.01 0.00 0.01 76 1006.0
20260505092506 59 278 10.0 20.0 0.00 0.00 0.00 75 1005.9
20260505092006 59 281 9.0 20.0 0.00 0.00 0.00 74 1005.8